{"data":{"norad_id":57612,"intl_designator":"2023-119L","name":"STARLINK-30245","alt_names":[],"object_type":"PAYLOAD","status":"ACTIVE","operator":null,"country":"US","launch_date":"2023-08-11","launch_site_code":"AFETR","launch_vehicle":null,"mission":null,"orbit_class":"UNKNOWN","rcs_meters":null,"size_class":null,"mass_kg":null,"dimensions":null,"purposes":["comms"],"wikipedia_slug":null,"has_3d_model":false,"image_url":null,"decayed_at":null,"tle_current":{"epoch":"2026-09-20T04:03:11.350368Z","epoch_age_seconds":156294,"freshness":"FRESH","line1":"1 57612U 23119L   26263.16888137  .00000578  00000+0  30537-4 0  9999","line2":"2 57612  43.0056  62.9017 0001483 265.6523  94.4160 15.27579757172831","mean_motion":15.27579757,"eccentricity":0.0001483,"inclination_deg":43.0056,"raan_deg":62.9017,"arg_perigee_deg":265.6523,"mean_anomaly_deg":94.416,"bstar":3.0537e-5,"rev_number":17283,"period_min":94.26676370915,"perigee_km":482.03230966322,"apogee_km":484.06733767512,"semimajor_km":6861.1868236692,"source":"CELESTRAK","updated_at":"2026-09-21T09:00:33.642008Z"}}}